Main page
METAR-TAF:

METAR-TAF

Airports :

Broken Bow Municipal Airport

Broken Bow, Nebraska, United States

latitude: 41-26N, longitude: 099-39W, elevation: 2545 ft

Current weather observation

The report was made 42 minutes ago, at 21:53 UTC
Wind 17 mph from the North with gusts up to 22 mph
Temperature 72°F
Humidity 35%
Pressure 29.89 in. Hg
Visibility: 10 miles
Clear sky

METAR: KBBW 262153Z AUTO 36015G19KT 10SM CLR 22/06 A2989 RMK AO2 SLP110 T02220061

Time: 17:35 (22:35 UTC)


TAF: missing

Weather observations and forecasts of more than 4000 airports (METAR and TAF reports).

The available stations are represented by yellow and red dots on the map.

Hover mouse over dot to see the name of the station.

Then click to see weather observations and forecasts.

To change the map : click on the green buttons with a black cross to zoom in, on the green button with a dash to zoom out, or on the green arrows for adjacent maps.


METAR-TAF: